Louisa, VA

2:06 PM EDT on September 27, 2016 (GMT -0400)
Louisa County-Freeman

Weather History for KLKU - June, 2013

Change the Weather History Date:

Monday, June 17, 2013

  Actual Average (KCHO) Record (KCHO)
Temperature  
Mean Temperature 78 °F 73 °F  
Max Temperature 87 °F 84 °F 98 °F (1991)
Min Temperature 69 °F 61 °F 50 °F (1961)
Degree Days  
Heating Degree Days 0 0  
Month to date heating degree days 8  
Since 1 June heating degree days 8  
Since 1 July heating degree days 4441  
Cooling Degree Days 13 8  
Month to date cooling degree days 101  
Year to date cooling degree days 187  
Since 1 June cooling degree days 101  
Growing Degree Days 28 (Base 50)    
Moisture  
Dew Point 69 °F    
Average Humidity 77    
Maximum Humidity 88    
Minimum Humidity 52    
Precipitation  
Precipitation 0.00 in 0.12 in 1.34 in (2009)
Month to date precipitation 2.30  
Year to date precipitation 18.77  
Sea Level Pressure  
Sea Level Pressure 29.95 in    
Wind  
Wind Speed 3 mph (SW)    
Max Wind Speed 7 mph    
Max Gust Speed -    
Visibility 10 miles    
Events Rain    
T = Trace of Precipitation, MM = Missing Value Source: NWS Daily Summary

Daily Weather History Graph

Daily Weather History Graph

Search for Another Location

Airport or City:

Trip Planner

Search our weather history database for the weather conditions in past years. The results will help you decide how hot, cold, wet, or windy it might be!

Date:

Astronomy

Jun. 17, 2013 Rise Set
Actual Time 5:48 AM EDT 8:36 PM EDT
Civil Twilight 5:17 AM EDT 9:08 PM EDT
Nautical Twilight 4:37 AM EDT 9:47 PM EDT
Astronomical Twilight 3:53 AM EDT 10:32 PM EDT
Moon 2:18 PM EDT (6/17) 1:18 AM EDT (6/17)
Length of Visible Light 15h 51m
Length of Day
14h 48m
First Quarter, 60% of the Moon is Illuminated
Jun 17
First Quarter
Jun 23
Full
Jun 30
Last Quarter
Jul 8
New
Jul 15
First Quarter

Hourly Weather History & Observations

Time (EDT) Temp. Heat Index Dew Point Humidity Pressure Visibility Wind Dir Wind Speed Gust Speed Precip Events Conditions
12:15 AM 73.4 °F - 68.0 °F 83% 29.96 in 10.0 mi Calm Calm - N/A   Scattered Clouds
12:35 AM 71.6 °F - 68.0 °F 88% 29.96 in 10.0 mi Calm Calm - N/A   Scattered Clouds
12:55 AM 73.4 °F - 68.0 °F 83% 29.97 in 10.0 mi West 3.5 mph - N/A Rain Light Rain
1:15 AM 73.4 °F - 68.0 °F 83% 29.97 in 10.0 mi West 4.6 mph - N/A   Drizzle
1:35 AM 73.4 °F - 68.0 °F 83% 29.97 in 10.0 mi SW 3.5 mph - N/A   Light Drizzle
1:55 AM 73.4 °F - 68.0 °F 83% 29.97 in 10.0 mi Calm Calm - N/A Rain Rain
2:15 AM 73.4 °F - 68.0 °F 83% 29.97 in 10.0 mi Calm Calm - N/A   Light Drizzle
2:35 AM 71.6 °F - 68.0 °F 88% 29.96 in 10.0 mi Calm Calm - N/A   Scattered Clouds
2:55 AM 71.6 °F - 68.0 °F 88% 29.96 in 10.0 mi SW 3.5 mph - N/A   Clear
3:15 AM 73.4 °F - 68.0 °F 83% 29.95 in 10.0 mi SSW 4.6 mph - N/A   Mostly Cloudy
3:35 AM 73.4 °F - 68.0 °F 83% 29.95 in 10.0 mi SW 3.5 mph - N/A   Mostly Cloudy
3:55 AM 73.4 °F - 68.0 °F 83% 29.95 in 10.0 mi WSW 3.5 mph - N/A   Mostly Cloudy
4:15 AM 71.6 °F - 68.0 °F 88% 29.96 in 10.0 mi SW 3.5 mph - N/A   Mostly Cloudy
4:35 AM 71.6 °F - 66.2 °F 83% 29.96 in 10.0 mi Calm Calm - N/A   Mostly Cloudy
4:55 AM 71.6 °F - 68.0 °F 88% 29.96 in 10.0 mi SW 3.5 mph - N/A   Scattered Clouds
5:15 AM 71.6 °F - 68.0 °F 88% 29.96 in 10.0 mi SW 4.6 mph - N/A   Clear
5:35 AM 71.6 °F - 66.2 °F 83% 29.96 in 10.0 mi SW 3.5 mph - N/A   Clear
5:55 AM 71.6 °F - 68.0 °F 88% 29.96 in 10.0 mi WSW 4.6 mph - N/A   Scattered Clouds
6:15 AM 71.6 °F - 68.0 °F 88% 29.97 in 10.0 mi SW 3.5 mph - N/A   Scattered Clouds
6:35 AM 71.6 °F - 68.0 °F 88% 29.98 in 10.0 mi SW 6.9 mph - N/A   Mostly Cloudy
6:55 AM 71.6 °F - 68.0 °F 88% 29.98 in 10.0 mi SW 5.8 mph - N/A   Mostly Cloudy
7:15 AM 71.6 °F - 68.0 °F 88% 29.98 in 10.0 mi SW 5.8 mph - N/A   Scattered Clouds
7:35 AM 71.6 °F - 68.0 °F 88% 29.99 in 10.0 mi SW 5.8 mph - N/A   Clear
7:55 AM 71.6 °F - 68.0 °F 88% 29.99 in 10.0 mi SW 5.8 mph - N/A   Scattered Clouds
8:15 AM 73.4 °F - 68.0 °F 83% 29.99 in 10.0 mi WSW 5.8 mph - N/A   Scattered Clouds
8:35 AM 71.6 °F - 68.0 °F 88% 29.99 in 10.0 mi WSW 3.5 mph - N/A   Light Drizzle
8:55 AM 71.6 °F - 68.0 °F 88% 29.99 in 10.0 mi SW 4.6 mph - N/A   Scattered Clouds
9:15 AM 73.4 °F - 68.0 °F 83% 29.99 in 10.0 mi SW 3.5 mph - N/A   Clear
9:35 AM 73.4 °F - 69.8 °F 88% 29.99 in 10.0 mi SW 5.8 mph - N/A   Scattered Clouds
9:55 AM 75.2 °F - 69.8 °F 83% 29.98 in 10.0 mi WSW 4.6 mph - N/A   Mostly Cloudy
10:15 AM 77.0 °F - 69.8 °F 78% 29.98 in 10.0 mi SW 5.8 mph - N/A   Scattered Clouds
10:35 AM 78.8 °F - 69.8 °F 74% 29.97 in 10.0 mi WSW 5.8 mph - N/A   Clear
10:55 AM 78.8 °F - 69.8 °F 74% 29.97 in 10.0 mi SW 3.5 mph - N/A   Clear
11:15 AM 78.8 °F - 69.8 °F 74% 29.97 in 10.0 mi SSW 3.5 mph - N/A   Clear
11:35 AM 80.6 °F 83.9 °F 69.8 °F 70% 29.97 in 10.0 mi SSW 5.8 mph - N/A   Clear
11:55 AM 82.4 °F 86.3 °F 69.8 °F 66% 29.97 in 10.0 mi SW 3.5 mph - N/A   Clear
12:15 PM 84.2 °F 88.4 °F 69.8 °F 62% 29.96 in 10.0 mi South 4.6 mph - N/A   Clear
12:35 PM 82.4 °F 86.3 °F 69.8 °F 66% 29.96 in 10.0 mi SW 4.6 mph - N/A   Scattered Clouds
12:55 PM 86.0 °F 90.4 °F 69.8 °F 58% 29.96 in 10.0 mi Calm Calm - N/A   Mostly Cloudy
1:15 PM 84.2 °F 89.6 °F 71.6 °F 66% 29.96 in 10.0 mi SW 4.6 mph - N/A   Scattered Clouds
1:35 PM 87.8 °F 92.6 °F 69.8 °F 55% 29.96 in 10.0 mi West 6.9 mph - N/A   Scattered Clouds
1:55 PM 84.2 °F 88.4 °F 69.8 °F 62% 29.96 in 10.0 mi SW 4.6 mph - N/A   Mostly Cloudy
2:15 PM 87.8 °F 92.6 °F 69.8 °F 55% 29.95 in 10.0 mi South 3.5 mph - N/A   Scattered Clouds
2:35 PM 87.8 °F 93.8 °F 71.6 °F 58% 29.94 in 10.0 mi SSW 3.5 mph - N/A   Clear
2:55 PM 87.8 °F 91.4 °F 68.0 °F 52% 29.94 in 10.0 mi West 3.5 mph - N/A   Clear
3:15 PM 87.8 °F 92.6 °F 69.8 °F 55% 29.93 in 10.0 mi West 4.6 mph - N/A   Clear
3:35 PM 87.8 °F 92.6 °F 69.8 °F 55% 29.92 in 10.0 mi WSW 3.5 mph - N/A   Scattered Clouds
3:55 PM 87.8 °F 92.6 °F 69.8 °F 55% 29.91 in 10.0 mi SW 5.8 mph - N/A   Scattered Clouds
4:15 PM 87.8 °F 92.6 °F 69.8 °F 55% 29.91 in 10.0 mi SSE 5.8 mph - N/A   Clear
4:35 PM 86.0 °F 90.4 °F 69.8 °F 58% 29.91 in 10.0 mi SSE 3.5 mph - N/A   Mostly Cloudy
4:55 PM 84.2 °F 88.4 °F 69.8 °F 62% 29.91 in 10.0 mi Calm Calm - N/A   Scattered Clouds
5:15 PM 84.2 °F 89.6 °F 71.6 °F 66% 29.91 in 10.0 mi Calm Calm - N/A   Scattered Clouds
5:35 PM 82.4 °F 87.2 °F 71.6 °F 70% 29.91 in 10.0 mi Calm Calm - N/A   Clear
5:55 PM 80.6 °F 84.6 °F 71.6 °F 74% 29.90 in 10.0 mi SSE 3.5 mph - N/A Rain Light Rain
6:15 PM 80.6 °F 84.6 °F 71.6 °F 74% 29.91 in 10.0 mi South 3.5 mph - N/A   Light Drizzle
6:35 PM 80.6 °F 84.6 °F 71.6 °F 74% 29.92 in 10.0 mi South 5.8 mph - N/A Rain Rain
6:55 PM 80.6 °F 85.4 °F 73.4 °F 79% 29.90 in 10.0 mi South 3.5 mph - N/A   Clear
7:15 PM 80.6 °F 85.4 °F 73.4 °F 79% 29.90 in 10.0 mi SW 4.6 mph - N/A   Clear
7:35 PM 78.8 °F - 71.6 °F 78% 29.91 in 10.0 mi West 4.6 mph - N/A   Clear
7:55 PM 75.2 °F - 68.0 °F 78% 29.92 in 10.0 mi West 5.8 mph - N/A   Clear
8:15 PM 73.4 °F - 66.2 °F 78% 29.93 in 10.0 mi West 4.6 mph - N/A   Clear
8:35 PM 73.4 °F - 66.2 °F 78% 29.93 in 10.0 mi Calm Calm - N/A   Clear
8:55 PM 71.6 °F - 66.2 °F 83% 29.93 in 10.0 mi West 3.5 mph - N/A   Clear
9:15 PM 71.6 °F - 66.2 °F 83% 29.92 in 10.0 mi West 5.8 mph - N/A   Clear
9:35 PM 71.6 °F - 66.2 °F 83% 29.93 in 10.0 mi West 5.8 mph - N/A   Clear
9:55 PM 71.6 °F - 66.2 °F 83% 29.94 in 10.0 mi Calm Calm - N/A   Clear
10:15 PM 71.6 °F - 66.2 °F 83% 29.94 in 10.0 mi West 4.6 mph - N/A   Clear
10:35 PM 71.6 °F - 66.2 °F 83% 29.95 in 10.0 mi West 3.5 mph - N/A   Clear
10:55 PM 69.8 °F - 66.2 °F 88% 29.95 in 10.0 mi SW 3.5 mph - N/A   Clear
11:15 PM 69.8 °F - 66.2 °F 88% 29.95 in 10.0 mi Calm Calm - N/A   Clear
11:35 PM 69.8 °F - 66.2 °F 88% 29.95 in 10.0 mi Calm Calm - N/A   Clear
11:55 PM 71.6 °F - 66.2 °F 83% 29.94 in 10.0 mi Calm Calm - N/A   Clear